TimeHST,TemperatureF,Dew PointF,Humidity,Sea Level PressureIn,VisibilityMPH,Wind Direction,Wind SpeedMPH,Gust SpeedMPH,PrecipitationIn,Events,Conditions,WindDirDegrees,DateUTC
12:16 AM,35.6,28.4,75,30.27,10.0,NW,5.8,-,N/A,,Overcast,320,2012-11-05 10:16:00
12:36 AM,35.6,28.4,75,30.27,10.0,NNW,9.2,-,N/A,,Overcast,330,2012-11-05 10:36:00
12:56 AM,35.6,28.4,75,30.27,10.0,NNW,10.4,-,N/A,,Overcast,330,2012-11-05 10:56:00
1:16 AM,35.6,30.2,81,30.28,10.0,NW,8.1,-,N/A,,Overcast,310,2012-11-05 11:16:00
1:36 AM,35.6,28.4,75,30.28,10.0,NW,11.5,-,N/A,,Overcast,320,2012-11-05 11:36:00
1:56 AM,35.6,28.4,75,30.28,10.0,NNE,3.5,-,N/A,,Overcast,30,2012-11-05 11:56:00
2:16 AM,35.6,30.2,81,30.29,10.0,North,8.1,-,N/A,,Overcast,350,2012-11-05 12:16:00
2:36 AM,35.6,28.4,75,30.29,10.0,Calm,Calm,-,N/A,,Overcast,0,2012-11-05 12:36:00
2:56 AM,33.8,28.4,81,30.29,10.0,Calm,Calm,-,N/A,,Overcast,0,2012-11-05 12:56:00
3:16 AM,33.8,30.2,87,30.29,10.0,Calm,Calm,-,N/A,,Overcast,0,2012-11-05 13:16:00
3:36 AM,35.6,30.2,81,30.29,10.0,WNW,8.1,-,N/A,,Overcast,300,2012-11-05 13:36:00
3:56 AM,35.6,30.2,81,30.30,8.0,NNW,6.9,-,N/A,,Mostly Cloudy,340,2012-11-05 13:56:00
4:16 AM,35.6,30.2,81,30.30,10.0,NNE,5.8,-,N/A,,Overcast,30,2012-11-05 14:16:00
4:36 AM,35.6,28.4,75,30.30,10.0,Calm,Calm,-,N/A,,Overcast,0,2012-11-05 14:36:00
4:56 AM,35.6,28.4,75,30.29,10.0,Calm,Calm,-,N/A,,Overcast,0,2012-11-05 14:56:00
5:16 AM,33.8,30.2,87,30.29,10.0,Calm,Calm,-,N/A,,Overcast,0,2012-11-05 15:16:00
5:36 AM,33.8,30.2,87,30.29,10.0,Calm,Calm,-,N/A,,Overcast,0,2012-11-05 15:36:00
5:56 AM,33.8,28.4,81,30.29,10.0,NW,6.9,-,N/A,,Overcast,310,2012-11-05 15:56:00
6:16 AM,35.6,28.4,75,30.29,10.0,West,4.6,-,N/A,,Overcast,270,2012-11-05 16:16:00
6:36 AM,35.6,28.4,75,30.30,10.0,Calm,Calm,-,N/A,,Overcast,0,2012-11-05 16:36:00
6:56 AM,33.8,28.4,81,30.29,10.0,NNW,5.8,-,N/A,,Overcast,330,2012-11-05 16:56:00
7:16 AM,33.8,28.4,81,30.30,10.0,Calm,Calm,-,N/A,,Overcast,0,2012-11-05 17:16:00
7:36 AM,35.6,28.4,75,30.30,10.0,Calm,Calm,-,N/A,,Overcast,0,2012-11-05 17:36:00
7:56 AM,33.8,26.6,75,30.30,10.0,Calm,Calm,-,N/A,,Scattered Clouds,0,2012-11-05 17:56:00
8:16 AM,33.8,26.6,75,30.31,10.0,Calm,Calm,-,N/A,,Scattered Clouds,0,2012-11-05 18:16:00
8:36 AM,33.8,28.4,81,30.31,10.0,Calm,Calm,-,N/A,,Overcast,0,2012-11-05 18:36:00
8:56 AM,33.8,28.4,81,30.31,10.0,Calm,Calm,-,N/A,,Overcast,0,2012-11-05 18:56:00
9:16 AM,33.8,28.4,81,30.32,10.0,Calm,Calm,-,N/A,,Overcast,0,2012-11-05 19:16:00
9:36 AM,35.6,28.4,75,30.32,10.0,Calm,Calm,-,N/A,,Mostly Cloudy,0,2012-11-05 19:36:00
9:56 AM,35.6,28.4,75,30.32,10.0,Calm,Calm,-,N/A,,Overcast,0,2012-11-05 19:56:00
10:16 AM,37.4,26.6,65,30.32,10.0,Calm,Calm,-,N/A,,Overcast,0,2012-11-05 20:16:00
10:36 AM,37.4,26.6,65,30.33,10.0,Calm,Calm,-,N/A,,Overcast,0,2012-11-05 20:36:00
10:56 AM,35.6,28.4,75,30.33,10.0,Calm,Calm,-,N/A,,Overcast,0,2012-11-05 20:56:00
11:16 AM,37.4,28.4,70,30.34,10.0,NE,6.9,-,N/A,,Overcast,50,2012-11-05 21:16:00
11:36 AM,37.4,26.6,65,30.34,10.0,NNE,4.6,-,N/A,,Overcast,30,2012-11-05 21:36:00
11:56 AM,37.4,26.6,65,30.34,10.0,NE,6.9,-,N/A,,Overcast,40,2012-11-05 21:56:00
12:16 PM,37.4,24.8,60,30.34,10.0,ENE,9.2,-,N/A,,Overcast,70,2012-11-05 22:16:00
12:36 PM,37.4,26.6,65,30.34,10.0,ENE,8.1,-,N/A,,Overcast,60,2012-11-05 22:36:00
12:56 PM,39.2,24.8,56,30.34,10.0,ENE,9.2,-,N/A,,Overcast,70,2012-11-05 22:56:00
1:16 PM,39.2,24.8,56,30.34,10.0,East,9.2,-,N/A,,Overcast,90,2012-11-05 23:16:00
1:36 PM,37.4,24.8,60,30.34,10.0,ENE,5.8,-,N/A,,Overcast,60,2012-11-05 23:36:00
1:56 PM,37.4,26.6,65,30.33,10.0,East,10.4,-,N/A,,Overcast,80,2012-11-05 23:56:00
2:16 PM,37.4,24.8,60,30.32,10.0,East,10.4,-,N/A,,Overcast,80,2012-11-06 00:16:00
2:36 PM,37.4,26.6,65,30.32,10.0,ENE,8.1,-,N/A,,Overcast,70,2012-11-06 00:36:00
2:56 PM,39.2,24.8,56,30.31,10.0,East,8.1,-,N/A,,Overcast,80,2012-11-06 00:56:00
3:16 PM,37.4,26.6,65,30.31,10.0,ENE,9.2,-,N/A,,Overcast,70,2012-11-06 01:16:00
3:36 PM,37.4,28.4,70,30.31,10.0,East,11.5,-,N/A,,Overcast,80,2012-11-06 01:36:00
3:56 PM,37.4,28.4,70,30.31,10.0,ENE,13.8,-,N/A,,Overcast,70,2012-11-06 01:56:00
4:16 PM,37.4,26.6,65,30.31,10.0,East,11.5,-,N/A,,Overcast,80,2012-11-06 02:16:00
4:36 PM,37.4,26.6,65,30.31,10.0,ENE,9.2,-,N/A,,Overcast,60,2012-11-06 02:36:00
4:56 PM,37.4,26.6,65,30.31,10.0,ENE,10.4,-,N/A,,Overcast,70,2012-11-06 02:56:00
5:16 PM,37.4,26.6,65,30.31,10.0,ENE,13.8,-,N/A,,Overcast,70,2012-11-06 03:16:00
5:36 PM,37.4,24.8,60,30.32,10.0,ENE,12.7,-,N/A,,Overcast,70,2012-11-06 03:36:00
5:56 PM,37.4,24.8,60,30.32,10.0,ESE,12.7,-,N/A,,Overcast,110,2012-11-06 03:56:00
6:16 PM,37.4,24.8,60,30.32,10.0,East,16.1,-,N/A,,Overcast,90,2012-11-06 04:16:00
6:36 PM,37.4,24.8,60,30.31,10.0,East,15.0,19.6,N/A,,Overcast,90,2012-11-06 04:36:00
6:56 PM,37.4,24.8,60,30.32,10.0,East,12.7,-,N/A,,Overcast,80,2012-11-06 04:56:00
7:16 PM,37.4,24.8,60,30.32,10.0,ESE,15.0,-,N/A,,Overcast,110,2012-11-06 05:16:00
7:36 PM,37.4,24.8,60,30.32,10.0,East,16.1,-,N/A,,Overcast,80,2012-11-06 05:36:00
7:56 PM,37.4,24.8,60,30.32,10.0,East,13.8,-,N/A,,Overcast,80,2012-11-06 05:56:00
8:16 PM,37.4,24.8,60,30.31,10.0,ENE,13.8,-,N/A,,Overcast,70,2012-11-06 06:16:00
8:36 PM,37.4,24.8,60,30.31,10.0,East,13.8,-,N/A,,Overcast,80,2012-11-06 06:36:00
8:56 PM,37.4,24.8,60,30.31,10.0,East,13.8,-,N/A,,Overcast,80,2012-11-06 06:56:00
9:16 PM,37.4,23.0,56,30.32,10.0,East,12.7,19.6,N/A,,Overcast,100,2012-11-06 07:16:00
9:36 PM,37.4,24.8,60,30.31,10.0,East,17.3,-,N/A,,Overcast,80,2012-11-06 07:36:00
9:56 PM,37.4,26.6,65,30.31,10.0,East,16.1,-,N/A,,Overcast,90,2012-11-06 07:56:00
10:16 PM,37.4,24.8,60,30.32,10.0,ESE,15.0,-,N/A,,Overcast,110,2012-11-06 08:16:00
10:36 PM,37.4,24.8,60,30.32,10.0,SE,17.3,-,N/A,,Overcast,140,2012-11-06 08:36:00
10:56 PM,37.4,24.8,60,30.32,10.0,ESE,16.1,-,N/A,,Overcast,120,2012-11-06 08:56:00
11:16 PM,37.4,24.8,60,30.32,10.0,East,15.0,-,N/A,,Overcast,100,2012-11-06 09:16:00
11:36 PM,37.4,24.8,60,30.31,10.0,East,13.8,-,N/A,,Overcast,100,2012-11-06 09:36:00
11:56 PM,37.4,26.6,65,30.31,10.0,East,18.4,23.0,N/A,,Overcast,100,2012-11-06 09:56:00